Home > Weather > Bandar-Abbas > Past weeks

Flag for Iran Weather for the Past 2 Weeks in Bandar-Abbas, Iran

Now
68 °F

Sunny.


Feels Like: 68 °F
Forecast: 52 / 74 °F
Wind: 5 mph from North

Location: Bandarabbass

Current Time: Feb 12, 2016 at 9:53:16 AM

Latest Report: Feb 12, 2016 at 9:00 AM


Visibility: 10 mi

Pressure: 30.01 "Hg

Humidity: 53%

Dew point: 50 °F

Location of Bandar-AbbasLocation

Historic Weather in Bandar-Abbas — Graph

°F

Bandar-Abbas Temperature Yesterday

Maximum temperature yesterday: 77 °F (at 1:30 PM)
Minimum temperature yesterday: 55 °F (at 6:30 AM)
Average temperature yesterday: 68 °F

High & Low Weather Summary for the Past Weeks

 TemperatureHumidityPressure
High79 °F (Feb 5, 2:00 PM)94% (Jan 31, 6:30 AM)30.27 "Hg (Jan 31, 6:30 AM)
Low46 °F (Feb 1, 3:30 AM)18% (Feb 11, 12:30 PM)29.86 "Hg (Jan 28, 3:30 PM)
Average66 °F55%30.05 "Hg
* Reported Jan 28 8:30 AM — Feb 12 8:30 AM, Bandar-Abbas, Weather by CustomWeather, © 2016

Note: Actual official high and low records may vary slightly from our data, if they occured in-between our weather recording intervals... More about our weather records

Advertising

Bandar-Abbas Weather History for the Previous 24 Hours

 ConditionsComfort  
Time TempWeatherWind HumidityBarometerVisibility
8:30 AM
Fri, Feb 12
64 °FSunny.5 mph64%29.98 "Hg10 mi
8:00 AM61 °FClear.5 mph63%29.98 "Hg5 mi
7:30 AM57 °FClear.7 mph67%29.95 "Hg4 mi
7:00 AM52 °FClear.5 mph72%29.95 "Hg4 mi
6:30 AM52 °FClear.5 mph72%29.92 "Hg4 mi
5:30 AM54 °FHaze.5 mph67%29.92 "Hg3 mi
4:30 AM55 °FHaze.2 mph67%29.89 "Hg3 mi
3:20 AM57 °FHaze.7 mph67%29.89 "Hg3 mi
2:30 AM57 °FHaze.5 mph72%29.89 "Hg3 mi
1:30 AM61 °FHaze.5 mph68%29.89 "Hg3 mi
1:00 AM64 °FHaze.5 mph64%29.92 "Hg3 mi
12:30 AM66 °FHaze.9 mph56%29.92 "Hg3 mi
12:00 AM66 °FHaze.14 mph60%29.92 "Hg3 mi
11:30 PM
Thu, Feb 11
66 °FHaze.9 mph64%29.92 "Hg3 mi
11:00 PM66 °FHaze.9 mph60%29.92 "Hg3 mi
10:30 PM66 °FHaze.12 mph56%29.92 "Hg3 mi
10:00 PM68 °FHaze.9 mph49%29.92 "Hg3 mi
9:30 PM68 °FHaze.14 mph53%29.92 "Hg3 mi
9:00 PM66 °FHaze.9 mph52%29.92 "Hg3 mi
8:30 PM68 °FHaze.7 mph53%29.92 "Hg3 mi
8:00 PM68 °FHaze.7 mph53%29.92 "Hg3 mi
7:30 PM68 °FHaze.5 mph60%29.92 "Hg3 mi
7:00 PM68 °FHaze.7 mph56%29.92 "Hg3 mi
6:30 PM68 °FHaze.5 mph56%29.92 "Hg3 mi
6:00 PM70 °FHaze.7 mph50%29.89 "Hg3 mi
5:30 PM70 °FClear.9 mph46%29.92 "Hg4 mi
5:00 PM70 °FClear.12 mph46%29.89 "Hg4 mi
4:30 PM72 °FClear.14 mph41%29.89 "Hg4 mi
4:00 PM73 °FHaze.12 mph36%29.92 "Hg4 mi
3:30 PM75 °FHaze.12 mph27%29.89 "Hg3 mi
3:00 PM75 °FHaze.12 mph27%29.89 "Hg3 mi
2:30 PM75 °FHaze.14 mph25%29.92 "Hg3 mi
2:00 PM75 °FHaze.12 mph25%29.92 "Hg3 mi
1:30 PM77 °FHaze.7 mph18%29.92 "Hg3 mi
1:00 PM75 °FHaze.9 mph19%29.95 "Hg2 mi
12:30 PM75 °FHaze.9 mph18%29.95 "Hg2 mi
12:00 PM73 °FHaze.9 mph19%29.98 "Hg2 mi
11:30 AM73 °FSandstorm.18 mph19%30.01 "Hg1 mi
11:00 AM73 °FSandstorm.18 mph19%30.01 "Hg1 mi
10:30 AM72 °FSandstorm.18 mph19%30.01 "Hg1 mi
10:00 AM70 °FSandstorm.21 mph20%30.04 "Hg2 mi
9:30 AM70 °FSandstorm.21 mph20%30.04 "Hg2 mi
9:00 AM68 °FClear.14 mph21%30.04 "Hg4 mi
Weather by CustomWeather, © 2016

See weather overviewHow to use our weather pages